{"data":{"norad_id":56013,"intl_designator":"2023-042AD","name":"STARLINK-5941","alt_names":[],"object_type":"PAYLOAD","status":"ACTIVE","operator":null,"country":"US","launch_date":"2023-03-24","launch_site_code":"AFETR","launch_vehicle":null,"mission":null,"orbit_class":"UNKNOWN","rcs_meters":null,"size_class":null,"mass_kg":null,"dimensions":null,"purposes":["comms"],"wikipedia_slug":null,"has_3d_model":false,"image_url":null,"decayed_at":null,"tle_current":{"epoch":"2026-05-24T23:18:08.287200Z","epoch_age_seconds":84469,"freshness":"FRESH","line1":"1 56013U 23042AD  26144.97092925  .00000343  00000+0  22005-4 0  9998","line2":"2 56013  43.0037 348.9724 0001764 258.2027 101.8626 15.27577131174538","mean_motion":15.27577131,"eccentricity":0.0001764,"inclination_deg":43.0037,"raan_deg":348.9724,"arg_perigee_deg":258.2027,"mean_anomaly_deg":101.8626,"bstar":2.2005e-5,"rev_number":17453,"period_min":94.266925759574,"perigee_km":481.84737212845,"apogee_km":484.26800161398,"semimajor_km":6861.1946868712,"source":"CELESTRAK","updated_at":"2026-05-25T13:38:17.926951Z"}}}